Regional Weather Roundup
Issued by NWS

Home | Current Version | Previous Version | Text Only | Print | Product List | Glossary On
Versions: 1 2 3 4 5 6 7 8 9 10 11 12 13 14 15 16 17 18 19 20 21 22 23 24 25 26 27 28 29 30 31 32 33 34 35 36 37 38 39 40 41 42 43 44 45 46 47 48 49 50
000
ASUS43 KMPX 231210
RWRMN
WEATHER ROUNDUP FOR MINNESOTA
NATIONAL WEATHER SERVICE TWIN CITIES/CHANHASSEN MN
600 AM CST FRI FEB 23 2018


NOTE: "FAIR" INDICATES FEW OR NO CLOUDS BELOW 12,000 FEET WITH NO
SIGNIFICANT WEATHER AND/OR OBSTRUCTIONS TO VISIBILITY. N/A MEANS
CURRENT SKY AND/OR WEATHER CONDITIONS ARE NOT AVAILABLE.

MNZ060>063-068>070-231300-
   Twin Cities Metro

CITY           SKY/WX    TMP DP  RH WIND       PRES   REMARKS
TWIN CITIES    CLOUDY    26  26 100 W3        30.05S FOG
6HR MIN TEMP:  26; 6HR MAX TEMP:  27; 6HR PCP:  0.16;

ST PAUL        CLOUDY    27  26  96 N3        30.06S FOG
CRYSTAL        CLOUDY    26  24  92 W3        30.04S FOG
BLAINE         MIX PCPN  28  28 100 CALM      30.04S
LAKEVILLE      CLOUDY    27  27 100 W8        30.04F WCI  18
EDEN PRAIRIE   CLOUDY    27  24  89 W5        30.04S FOG     WCI  22
6HR MIN TEMP:  26; 6HR MAX TEMP:  27; 6HR PCP:  0.06;

SOUTH ST PAUL  MOCLDY    28  28  99 CALM      30.05S FOG
LAKE ELMO      CLOUDY    28  27  93 CALM      30.05R FOG
$$
MNZ001>005-007-008-013>017-022>024-027-028-231300-
   Northwest Minnesota

CITY           SKY/WX    TMP DP  RH WIND       PRES   REMARKS
BEMIDJI        LGT SNOW  19  17  93 N3        30.06S
HALLOCK        FAIR       7   3  85 NW6       30.15R WCI  -3
ROSEAU         CLOUDY    12   9  85 CALM      30.11S
WARROAD        FAIR      12   9  85 CALM      30.10F
THIEF RVR FALL LGT SNOW  16  14  92 W3        30.12S FOG
CROOKSTON      LGT SNOW  18  16  93 NW7       30.14S WCI   8
FOSSTON        FLURRIES  18  14  86 N6        30.09F WCI   9
DETROIT LAKES  LGT SNOW  21  21 100 NW5       30.08R WCI  15
MOORHEAD       LGT SNOW  18  16  93 NW8       30.14S WCI   7
PARK RAPIDS    LGT SNOW  20  16  84 NW5       30.04S FOG     WCI  13
MAHNOMEN       FLURRIES  19  17  93 N9        30.08F WCI   7
$$
MNZ006-009>011-018-025>026-231300-
   North Central Minnesota

CITY           SKY/WX    TMP DP  RH WIND       PRES   REMARKS
BAUDETTE       LGT SNOW  15  13  91 NW3       30.07F FOG
FLAG ISLAND    CLOUDY     9   5  85 NW5       30.10R WCI   0
INTL FALLS     LGT SNOW  20  18  92 N5        30.07F FOG     WCI  13
6HR MIN TEMP:  20; 6HR MAX TEMP:  22; 6HR PCP:  0.03;

WASKISH        RAIN      19  18  93 CALM      30.08F
BIG FORK       LGT SNOW  21  18  86 CALM      30.05F
LONGVILLE      LGT SNOW  19  19 100 CALM      30.05S
GRAND RAPIDS   LGT SNOW  20  18  92 CALM      30.05F FOG
CRANE LAKE     LGT SNOW  19  18  93 CALM      30.08F VSB 3/4
ORR            LGT SNOW  19  16  86 CALM      30.02F
COOK           SNOW      19  18  93 CALM      30.04F VSB 1/2
WALKER         LGT SNOW  19  17  93 CALM      30.05S
$$
MNZ012-019>021-037-231300-
   Northeast Minnesota

CITY           SKY/WX    TMP DP  RH WIND       PRES   REMARKS
DULUTH         LGT SNOW  25  22  88 E6        30.00F FOG     WCI  18
6HR MIN TEMP:  22; 6HR MAX TEMP:  25; 6HR PCP:  0.24;

ELY            LGT SNOW  18  18 100 CALM      30.03F
HIBBING        LGT SNOW  20  18  92 CALM      30.03S VSB 1
EVELETH        LGT SNOW  21  19  93 NE3       30.04S
DULUTH HARBOR  FLURRIES  27  25  93 CALM      30.06F
TWO HARBORS    LGT SNOW  27  21  80 CALM      30.01F
SILVER BAY     MIX PCPN  27  25  93 NE3       30.01F VSB 1
GRAND MARAIS     N/A     27  24  89 NE8       30.07F WCI  19
G MARAIS ARPRT LGT SNOW  19  16  86 NE5       30.00F WCI  13
$$
MNZ029>031-032-039>041-046>048-054>057-064-231300-
   West Central Minnesota

CITY           SKY/WX    TMP DP  RH WIND       PRES   REMARKS
FERGUS FALLS   FLURRIES  19  18  93 NW9       30.10S WCI   9
WHEATON        LGT SNOW  19  18  93 W6        30.15R WCI  11
MORRIS         CLEAR     18  16  93 NW8       30.08S FOG     WCI   7
ALEXANDRIA     CLOUDY    20  18  92 NW6       30.06R WCI  12
ELBOW LAKE     FLURRIES  19  18  96 W6        30.09S WCI  10
WADENA         LGT SNOW  19  18  93 W3        30.05S
GLENWOOD       FAIR      19  19 100 W5        30.07R WCI  13
APPLETON       CLOUDY     9   3  78 W5        30.11R FOG     WCI   0
BENSON         CLEAR     18  16  93 NW7       30.11R WCI   8
ORTONVILLE     PTCLDY    16  12  86 NW6       30.11S FOG     WCI   7
MADISON        CLOUDY    12  10  92 W8        30.12S FOG     WCI   1
WILLMAR        CLOUDY    19  19 100 W8        30.10R WCI   9
$$
MNZ033>034-036-042>043-049>051-058-059-231300-
   Central Minnesota

CITY           SKY/WX    TMP DP  RH WIND       PRES   REMARKS
ST CLOUD       CLOUDY    22  22 100 NW6       30.04F FOG     WCI  14
6HR MIN TEMP:  22; 6HR MAX TEMP:  24; 6HR PCP:  0.15;

SAUK CENTRE    CLOUDY    21  19  93 W3        30.06R
PAYNESVILLE    CLOUDY    23  22  99 W6        30.06R WCI  15
AITKIN         LGT SNOW  19  18  93 CALM      30.03S
PINE RIVER     LGT SNOW  19  18  93 CALM      30.07F VSB 1
BRAINERD       LGT SNOW  20  17  88 NW3       30.04F FOG
STAPLES        LGT SNOW  18  18 100 NW3       30.05S
LONG PRAIRIE   FLURRIES  19  18  93 W5        30.05S WCI  13
LITTLE FALLS   FLURRIES  23  19  86 CALM      30.05S
LITCHFIELD     MOCLDY    25  25 100 W6        30.07R WCI  18
BUFFALO        MOCLDY    24  22  94 CALM      30.06S FOG
MAPLE LAKE     MOCLDY    25  24  96 W3        30.06S
HUTCHINSON     CLOUDY    25  24  96 W12       30.07R WCI  14
$$
MNZ037-044-045-052-053-231300-
   East Central Minnesota

CITY           SKY/WX    TMP DP  RH WIND       PRES   REMARKS
PRINCETON      MIX PCPN  25  23  93 CALM      30.03F
CAMBRIDGE      LGT SNOW  27  21  80 CALM      30.04F
RUSH CITY      CLOUDY    24  23  95 CALM      30.04F
MOOSE LAKE     LGT SNOW  23  21  93 CALM      30.02S
HINCKLEY       CLOUDY    27  27 100 CALM      30.04S
CLOQUET        LGT SNOW  25  21  86 CALM      30.02F
MCGREGOR       CLOUDY    23  21  93 CALM      30.04S VSB 1
$$
MNZ071>073-080-081-089-090-097-098-231300-
   Southwest Minnesota

CITY           SKY/WX    TMP DP  RH WIND       PRES   REMARKS
MONTEVIDEO     CLOUDY    19  19 100 NW5       30.10S FOG     WCI  13
GRANITE FALLS  MOCLDY    16  14  93 W9        30.12R FOG     WCI   4
CANBY          CLOUDY    20  18  91 NW12      30.12S WCI   8
MARSHALL       CLEAR     13  10  88 W12       30.11R WCI  -1
REDWOOD FALLS  PTCLDY    19  17  92 W15       30.09R FOG     WCI   5
OLIVIA         CLOUDY    23  21  93 W14       30.08S FOG     WCI  11
PIPESTONE      CLOUDY    19  18  93 NW14      30.10R WCI   6
WORTHINGTON    LGT SNOW  17  15  92 W16       30.10S FOG     WCI   2
JACKSON        CLEAR     19  18  93 W14       30.09S WCI   6
TRACY          CLEAR     18  17  94 W7        30.10R WCI   9
SLAYTON        CLOUDY    18  17  94 W14       30.10R FOG     WCI   4
$$
MNZ065>067-074>077-082>085-091>093-231300-
   South Central Minnesota

CITY           SKY/WX    TMP DP  RH WIND       PRES   REMARKS
MANKATO        CLOUDY    26  24  92 W13       30.08R WCI  15
NEW ULM        PTCLDY    19  18  93 W13       30.09R WCI   7
ST JAMES       CLEAR     21  19  93 W12       30.11R WCI   9
FAIRMONT       PTCLDY    23  20  88 W13       30.11R WCI  11
GLENCOE        CLOUDY    26  26 100 W6        30.06R WCI  19
FARIBAULT      CLOUDY    28  27  93 W8        30.06S WCI  20
OWATONNA       CLOUDY    28  25  86 W10       30.06S WCI  19
WASECA         CLOUDY    28  25  86 W13       30.08R WCI  18
ALBERT LEA     CLOUDY    27  25  93 W5        30.07R WCI  21
$$
MNZ078>079-086>088-094>096-231300-
   Southeast Minnesota

CITY           SKY/WX    TMP DP  RH WIND       PRES   REMARKS
ROCHESTER      CLOUDY    30  28  92 W18       30.04R WCI  18
6HR MIN TEMP:  30; 6HR MAX TEMP:  32; 6HR PCP:  0.13;

RED WING       MIX PCPN  28  27  93 CALM      30.04S
STANTON        CLOUDY    31  28  88 W8        30.04S WCI  23
DODGE CENTER   CLOUDY    28  25  86 W12       30.05R WCI  18
WINONA         CLOUDY    32  32 100 CALM      30.03F FOG
AUSTIN         CLOUDY    28  27  93 W10       30.07R WCI  19
PRESTON        CLOUDY    31  29  92 W12G20    30.05R WCI  22
$$
ABBREVIATIONS USED IN REMARKS
   TC - TEMPERATURES IN CELSIUS
  WCI - WIND CHILL INDEX
   HX - HEAT INDEX
  VSB - VISIBILITY
$$




USA.gov is the U.S. government's official web portal to all federal, state and local government web resources and services.